Rouyn Airport, Quebec

9:06 AM ADT on July 28, 2017 (GMT -0300)
Rouyn Airport

Weather History for CYUY - January, 2012

Change the Weather History Date:

Sunday, January 1, 2012

  Actual Average Record
Temperature  
Mean Temperature 24 °F -  
Max Temperature 30 °F - - ()
Min Temperature 17 °F - - ()
Degree Days  
Heating Degree Days 42    
Moisture  
Dew Point 23 °F    
Average Humidity 94    
Maximum Humidity 100    
Minimum Humidity 86    
Precipitation  
Precipitation 0.00 in - - ()
Sea Level Pressure  
Sea Level Pressure 29.65 in    
Wind  
Wind Speed 6 mph ()    
Max Wind Speed 13 mph    
Max Gust Speed 18 mph    
Visibility 3.8 miles    
Events Snow    
T = Trace of Precipitation, MM = Missing Value Source: Averaged Metar Reports

Daily Weather History Graph

Daily Weather History Graph

Search for Another Location

Airport or City:

Trip Planner

Search our weather history database for the weather conditions in past years. The results will help you decide how hot, cold, wet, or windy it might be!

Date:

Astronomy

Jan. 01, 2012 Rise Set
Actual Time 9:05 AM AST 5:31 PM AST
Civil Twilight 8:29 AM AST 6:07 PM AST
Nautical Twilight 7:49 AM AST 6:47 PM AST
Astronomical Twilight 7:12 AM AST 7:25 PM AST
Moon 12:36 PM AST (1/1) 1:40 AM AST (1/1)
Length of Visible Light 9h 38m
Length of Day
8h 25m
First Quarter, 54% of the Moon is Illuminated
Jan 1
First Quarter
Jan 9
Full
Jan 16
Last Quarter
Jan 23
New
Jan 31
First Quarter

Hourly Weather History & Observations

Time (AST) Temp. Windchill Dew Point Humidity Pressure Visibility Wind Dir Wind Speed Gust Speed Precip Events Conditions
12:00 AM 17.6 °F 9.3 °F 15.8 °F 93% 29.98 in 4.0 mi ESE 5.8 mph - N/A Snow Light Snow
1:00 AM 17.6 °F - 15.8 °F 93% 30.00 in 4.0 mi WSW 2.3 mph - N/A Snow Light Snow
1:26 AM - - - N/A% - 6.0 mi West 4.6 mph - N/A   Unknown
2:00 AM 17.6 °F - 15.8 °F 93% 29.99 in 4.0 mi ESE 2.3 mph - N/A Snow Light Snow
2:44 AM - - - N/A% - 5.0 mi South 4.6 mph - N/A   Overcast
3:00 AM 19.4 °F 12.8 °F 15.8 °F 86% 29.96 in 6.0 mi SSE 4.6 mph - N/A Snow Light Snow
3:43 AM - - - N/A% - 10.0 mi South 5.8 mph - N/A   Overcast
4:00 AM 19.4 °F 11.5 °F 17.6 °F 93% 29.94 in 10.0 mi South 5.8 mph - N/A   Overcast
5:00 AM 19.4 °F 9.5 °F 17.6 °F 93% 29.94 in 12.0 mi South 8.1 mph - N/A   Overcast
6:00 AM 19.4 °F 8.6 °F 17.6 °F 93% 29.91 in 10.0 mi South 9.2 mph - N/A   Overcast
7:00 AM 19.4 °F 6.6 °F 17.6 °F 93% 29.88 in 10.0 mi South 12.7 mph - N/A   Overcast
8:00 AM 21.2 °F 11.7 °F 19.4 °F 93% 29.86 in 10.0 mi South 8.1 mph - N/A   Overcast
9:00 AM 21.2 °F 12.6 °F 19.4 °F 93% 29.82 in 6.0 mi SSE 6.9 mph - N/A   Overcast
10:00 AM 23.0 °F 14.7 °F 21.2 °F 93% 29.79 in 6.0 mi SSE 6.9 mph - N/A   Overcast
11:00 AM 24.8 °F 14.6 °F 23.0 °F 93% 29.73 in 6.0 mi South 10.4 mph - N/A   Overcast
12:00 PM 24.8 °F 15.3 °F 24.8 °F 100% 29.69 in 5.0 mi SSE 9.2 mph - N/A   Overcast
12:21 PM - - - N/A% - 3.0 mi SE 11.5 mph - N/A   Overcast
12:25 PM - - - N/A% - 3.0 mi SE 11.5 mph - N/A   Overcast
12:47 PM - - - N/A% - 2.5 mi SSE 10.4 mph - N/A   Overcast
1:00 PM 26.6 °F 16.8 °F 24.8 °F 93% 29.60 in 2.0 mi SE 10.4 mph - N/A   Overcast
2:00 PM 26.6 °F 16.2 °F 26.6 °F 100% 29.55 in 2.5 mi SSE 11.5 mph 18.4 mph N/A   Overcast
3:00 PM 26.6 °F 18.2 °F 26.6 °F 100% 29.51 in 2.5 mi SSE 8.1 mph - N/A   Overcast
3:15 PM - - - N/A% - 2.0 mi SE 9.2 mph - N/A   Overcast
3:28 PM - - - N/A% - 1.0 mi SE 9.2 mph - N/A   Overcast
3:33 PM - - - N/A% - 0.5 mi SE 8.1 mph - N/A   Unknown
3:42 PM - - - N/A% - 0.4 mi SE 8.1 mph - N/A   Unknown
4:00 PM 28.4 °F 21.2 °F 26.6 °F 93% 29.43 in 0.5 mi ESE 6.9 mph - N/A Snow Snow
4:27 PM - - - N/A% - 1.2 mi ESE 9.2 mph - N/A   Unknown
4:50 PM - - - N/A% - 0.6 mi ESE 8.1 mph - N/A   Unknown
5:00 PM 28.4 °F 20.4 °F 26.6 °F 93% 29.39 in 0.8 mi East 8.1 mph - N/A Snow Light Snow
5:20 PM - - - N/A% - 0.5 mi East 5.8 mph - N/A   Unknown
5:28 PM - - - N/A% - 0.4 mi East 5.8 mph - N/A   Unknown
5:42 PM - - - N/A% - 0.8 mi East 5.8 mph - N/A   Unknown
6:00 PM 28.4 °F 21.2 °F 26.6 °F 93% 29.36 in 0.5 mi East 6.9 mph - N/A Snow Snow
7:00 PM 28.4 °F 21.2 °F 28.4 °F 100% 29.31 in 0.8 mi East 6.9 mph - N/A Snow Light Snow
7:14 PM - - - N/A% - 1.0 mi ESE 5.8 mph - N/A   Unknown
7:28 PM - - - N/A% - 1.5 mi ESE 5.8 mph - N/A   Unknown
8:00 PM 30.2 °F 25.4 °F 28.4 °F 93% 29.28 in 2.5 mi SE 4.6 mph - N/A Snow Light Snow
9:00 PM 30.2 °F 25.4 °F 30.2 °F 100% 29.26 in 3.0 mi South 4.6 mph - N/A Snow Light Snow
9:30 PM - - - N/A% - 4.0 mi South 3.5 mph - N/A   Unknown
10:00 PM 30.2 °F - 30.2 °F 100% 29.24 in 5.0 mi SW 2.3 mph - N/A Snow Light Snow
10:38 PM - - - N/A% - 3.0 mi SW 3.5 mph - N/A   Unknown
11:00 PM 30.2 °F 26.7 °F 28.4 °F 93% 29.21 in 3.0 mi WSW 3.5 mph - N/A Snow Light Snow
11:12 PM - - - N/A% - 2.5 mi West 3.5 mph - N/A   Unknown